STARLINK-2756 (48683 NORAD) Tracking and Keplerian Element Data

This shows tracking and keplerian element data for the satellite.

Feedback or suggestion? Click here.




ElementValue
Catalog48683
NameSTARLINK-2756
Epoch Orbit369
Epoch Day214.91667824
Epoch Year2021
RAAN86.0012
Inclination53.0472
Eccentricity0.0002185
Argument of Perigee38.1887
Mean Anonmoly43.5421
Mean Motion15.73206718
Decay Rate-1.14E-06
L11 48683U 21044AX 21214.91667824 -.00000114 00000-0 36156-5 0 9996
L22 48683 53.0472 86.0012 0002185 38.1887 43.5421 15.73206718 3697

Live tracking and technical data element details for STARLINK-2756 (NORAD 48683). STARLINK-2756 can be tracked NOW for your location showing map with azimuth and elevation plus other details from your city location.

Track the satellite on the map from your city or location and see movement details for azimuth, elevation, latitude, longitude, range, height, and movement on the map or in text.







IsCatalogInMostPopularTable: catalog: 48683, numindb: 13
Update: records affected: 1



GetName: 48683 STARLINK-2756

Hit Count: updated at: Tue, 03 Aug 2021 22:42:18 GMT